| time (UTC) | temp F | wind direction | speed MPH | gust MPH | rain 1hr in | rain 24hr in | rain mn in | humidity % | barometer mb |
| 20260906065603 | 61 | 196 | 1.0 | 3.0 | 0.00 | 0.00 | 0.00 | 82 | 1026.2 |
| 20260906065104 | 61 | 196 | 2.0 | 6.0 | 0.00 | 0.00 | 0.00 | 83 | 1026.2 |
| 20260906064104 | 60 | 195 | 2.0 | 5.0 | 0.00 | 0.00 | 0.00 | 83 | 1026.1 |
| 20260906063604 | 60 | 197 | 2.0 | 5.0 | 0.00 | 0.00 | 0.00 | 83 | 1026.1 |
| 20260906063105 | 60 | 197 | 3.0 | 5.0 | 0.00 | 0.00 | 0.00 | 84 | 1026.1 |
| 20260906062603 | 59 | 198 | 1.0 | 5.0 | 0.00 | 0.00 | 0.00 | 85 | 1026.1 |
| 20260906062104 | 59 | 199 | 2.0 | 3.0 | 0.00 | 0.00 | 0.00 | 85 | 1026.1 |
| 20260906060103 | 58 | 200 | 2.0 | 3.0 | 0.00 | 0.00 | 0.00 | 88 | 1025.9 |
| 20260906055606 | 58 | 200 | 2.0 | 3.0 | 0.00 | 0.00 | 0.00 | 88 | 1025.9 |
| 20260906055105 | 57 | 200 | 2.0 | 3.0 | 0.00 | 0.00 | 0.00 | 89 | 1025.8 |
| 20260906054603 | 57 | 200 | 2.0 | 3.0 | 0.00 | 0.00 | 0.00 | 89 | 1025.8 |
| 20260906054104 | 57 | 200 | 1.0 | 3.0 | 0.00 | 0.00 | 0.00 | 89 | 1025.9 |
| 20260906051604 | 57 | 200 | 2.0 | 3.0 | 0.00 | 0.00 | 0.00 | 88 | 1025.8 |
| 20260906051105 | 57 | 200 | 2.0 | 3.0 | 0.00 | 0.00 | 0.00 | 88 | 1025.8 |
| 20260906044104 | 57 | 200 | 2.0 | 3.0 | 0.00 | 0.00 | 0.00 | 87 | 1025.6 |
| 20260906043604 | 57 | 200 | 2.0 | 3.0 | 0.00 | 0.00 | 0.00 | 87 | 1025.6 |
| 20260906043104 | 57 | 200 | 1.0 | 3.0 | 0.00 | 0.00 | 0.00 | 87 | 1025.6 |
| 20260906042603 | 57 | 200 | 2.0 | 3.0 | 0.00 | 0.00 | 0.00 | 87 | 1025.9 |
| 20260906035603 | 57 | 201 | 2.0 | 3.0 | 0.00 | 0.00 | 0.00 | 87 | 1025.9 |
| 20260906035104 | 57 | 201 | 2.0 | 3.0 | 0.00 | 0.00 | 0.00 | 87 | 1026.1 |
| 20260906034603 | 57 | 201 | 3.0 | 5.0 | 0.00 | 0.00 | 0.00 | 88 | 1026.1 |
| 20260906034104 | 57 | 301 | 2.0 | 5.0 | 0.00 | 0.00 | 0.00 | 88 | 1026.1 |
| 20260906032103 | 57 | 303 | 0.0 | 1.0 | 0.00 | 0.00 | 0.00 | 88 | 1026.1 |
| 20260906031603 | 57 | 303 | 0.0 | 3.0 | 0.00 | 0.00 | 0.00 | 88 | 1026.1 |
| 20260906031103 | 57 | 303 | 1.0 | 3.0 | 0.00 | 0.00 | 0.00 | 88 | 1026.2 |
| 20260906025603 | 57 | 303 | 1.0 | 3.0 | 0.00 | 0.00 | 0.00 | 88 | 1026.2 |
| 20260906025103 | 57 | 303 | 1.0 | 2.0 | 0.00 | 0.00 | 0.00 | 88 | 1026.2 |
| 20260906024603 | 57 | 303 | 0.0 | 3.0 | 0.00 | 0.00 | 0.00 | 88 | 1026.2 |
| 20260906024103 | 57 | 303 | 1.0 | 3.0 | 0.00 | 0.00 | 0.00 | 88 | 1026.5 |
| 20260906022104 | 57 | 303 | 1.0 | 3.0 | 0.00 | 0.00 | 0.00 | 89 | 1026.7 |
| 20260906021603 | 57 | 303 | 0.0 | 3.0 | 0.00 | 0.00 | 0.00 | 89 | 1026.7 |
| 20260906015603 | 57 | 303 | 0.0 | 0.0 | 0.00 | 0.00 | 0.00 | 89 | 1026.7 |
| 20260906015104 | 57 | 303 | 0.0 | 0.0 | 0.00 | 0.00 | 0.00 | 89 | 1026.7 |
| 20260906014603 | 57 | 303 | 0.0 | 0.0 | 0.00 | 0.00 | 0.00 | 89 | 1026.7 |
| 20260906014104 | 57 | 303 | 0.0 | 0.0 | 0.00 | 0.00 | 0.00 | 89 | 1026.6 |
| 20260906013603 | 57 | 303 | 0.0 | 0.0 | 0.00 | 0.00 | 0.00 | 88 | 1026.6 |
| 20260906013104 | 57 | 303 | 0.0 | 2.0 | 0.00 | 0.00 | 0.00 | 88 | 1026.5 |
| 20260906012603 | 57 | 303 | 0.0 | 2.0 | 0.00 | 0.00 | 0.00 | 89 | 1026.6 |
| 20260906005603 | 57 | 303 | 1.0 | 2.0 | 0.00 | 0.00 | 0.00 | 89 | 1026.7 |
| 20260906003104 | 58 | 303 | 0.0 | 0.0 | 0.00 | 0.00 | 0.00 | 89 | 1026.6 |
| 20260906002603 | 58 | 303 | 0.0 | 0.0 | 0.00 | 0.00 | 0.00 | 89 | 1026.6 |
| 20260906001104 | 58 | 303 | 0.0 | 2.0 | 0.00 | 0.00 | 0.00 | 88 | 1026.6 |
| 20260905233104 | 58 | 303 | 0.0 | 2.0 | 0.00 | 0.00 | 0.00 | 88 | 1026.5 |
| 20260905232603 | 58 | 303 | 0.0 | 1.0 | 0.00 | 0.00 | 0.00 | 88 | 1026.5 |
| 20260905231104 | 58 | 303 | 1.0 | 2.0 | 0.00 | 0.00 | 0.00 | 88 | 1026.6 |
| 20260905221602 | 58 | 303 | 0.0 | 1.0 | 0.00 | 0.00 | 0.00 | 87 | 1026.2 |
| 20260905221104 | 58 | 303 | 0.0 | 2.0 | 0.00 | 0.00 | 0.00 | 87 | 1026.1 |
| 20260905213602 | 58 | 303 | 0.0 | 0.0 | 0.00 | 0.00 | 0.00 | 87 | 1026.0 |
| 20260905213103 | 58 | 303 | 0.0 | 0.0 | 0.00 | 0.00 | 0.00 | 86 | 1026.1 |
| 20260905212602 | 59 | 303 | 0.0 | 0.0 | 0.00 | 0.00 | 0.00 | 86 | 1026.1 |
| 20260905212103 | 59 | 303 | 0.0 | 0.0 | 0.00 | 0.00 | 0.00 | 86 | 1026.1 |
| 20260905204602 | 60 | 303 | 0.0 | 0.0 | 0.00 | 0.00 | 0.00 | 84 | 1025.9 |
| 20260905204103 | 60 | 303 | 0.0 | 0.0 | 0.00 | 0.00 | 0.00 | 84 | 1025.9 |
| 20260905203103 | 60 | 303 | 0.0 | 0.0 | 0.00 | 0.00 | 0.00 | 84 | 1026.0 |
| 20260905202603 | 60 | 303 | 0.0 | 0.0 | 0.00 | 0.00 | 0.00 | 84 | 1026.0 |
| 20260905202103 | 60 | 303 | 0.0 | 0.0 | 0.00 | 0.00 | 0.00 | 83 | 1025.9 |
| 20260905195602 | 61 | 303 | 0.0 | 0.0 | 0.00 | 0.00 | 0.00 | 81 | 1025.7 |
| 20260905193603 | 62 | 303 | 0.0 | 0.0 | 0.00 | 0.00 | 0.00 | 79 | 1025.6 |
| 20260905193103 | 62 | 303 | 0.0 | 0.0 | 0.00 | 0.00 | 0.00 | 78 | 1025.6 |
| 20260905191602 | 63 | 303 | 0.0 | 0.0 | 0.00 | 0.00 | 0.00 | 76 | 1025.6 |
| 20260905191104 | 63 | 303 | 0.0 | 1.0 | 0.00 | 0.00 | 0.00 | 76 | 1025.5 |
| 20260905185602 | 64 | 303 | 0.0 | 1.0 | 0.00 | 0.00 | 0.00 | 74 | 1025.5 |
| 20260905185103 | 64 | 303 | 1.0 | 1.0 | 0.00 | 0.00 | 0.00 | 73 | 1025.5 |
| 20260905184603 | 64 | 303 | 0.0 | 2.0 | 0.00 | 0.00 | 0.00 | 73 | 1025.4 |
| 20260905184102 | 64 | 303 | 1.0 | 3.0 | 0.00 | 0.00 | 0.00 | 73 | 1025.4 |
| 20260905183602 | 64 | 303 | 2.0 | 3.0 | 0.00 | 0.00 | 0.00 | 73 | 1025.3 |
| 20260905183103 | 65 | 303 | 1.0 | 3.0 | 0.00 | 0.00 | 0.00 | 73 | 1025.3 |
| 20260905182602 | 65 | 303 | 1.0 | 3.0 | 0.00 | 0.00 | 0.00 | 72 | 1025.4 |
| 20260905182103 | 65 | 303 | 1.0 | 3.0 | 0.00 | 0.00 | 0.00 | 72 | 1025.1 |
| 20260905181602 | 65 | 303 | 0.0 | 0.0 | 0.00 | 0.00 | 0.00 | 72 | 1025.2 |
| 20260905181104 | 65 | 303 | 0.0 | 3.0 | 0.00 | 0.00 | 0.00 | 72 | 1025.2 |
| 20260905173103 | 65 | 303 | 4.0 | 7.0 | 0.00 | 0.00 | 0.00 | 69 | 1025.1 |
| 20260905165102 | 66 | 310 | 6.0 | 12.0 | 0.00 | 0.00 | 0.00 | 69 | 1025.1 |
| 20260905164602 | 65 | 312 | 4.0 | 7.0 | 0.00 | 0.00 | 0.00 | 69 | 1024.8 |
| 20260905164102 | 65 | 315 | 5.0 | 8.0 | 0.00 | 0.00 | 0.00 | 69 | 1024.8 |
| 20260905162103 | 66 | 310 | 6.0 | 13.0 | 0.00 | 0.00 | 0.00 | 67 | 1024.7 |
| 20260905161601 | 66 | 314 | 6.0 | 12.0 | 0.00 | 0.00 | 0.00 | 66 | 1024.6 |
| 20260905161102 | 66 | 291 | 5.0 | 16.0 | 0.00 | 0.00 | 0.00 | 66 | 1024.6 |
| 20260905155602 | 67 | 291 | 5.0 | 12.0 | 0.00 | 0.00 | 0.00 | 67 | 1024.5 |
| 20260905155103 | 66 | 285 | 6.0 | 12.0 | 0.00 | 0.00 | 0.00 | 68 | 1024.4 |
| 20260905154602 | 66 | 269 | 4.0 | 9.0 | 0.00 | 0.00 | 0.00 | 68 | 1024.3 |
| 20260905154102 | 66 | 296 | 5.0 | 10.0 | 0.00 | 0.00 | 0.00 | 68 | 1024.2 |
| 20260905153602 | 66 | 303 | 4.0 | 7.0 | 0.00 | 0.00 | 0.00 | 68 | 1024.1 |
| 20260905153102 | 66 | 307 | 6.0 | 13.0 | 0.00 | 0.00 | 0.00 | 68 | 1024.1 |
| 20260905152601 | 66 | 306 | 7.0 | 14.0 | 0.00 | 0.00 | 0.00 | 67 | 1024.1 |
| 20260905151602 | 66 | 292 | 7.0 | 13.0 | 0.00 | 0.00 | 0.00 | 67 | 1024.0 |
| 20260905151102 | 66 | 300 | 7.0 | 16.0 | 0.00 | 0.00 | 0.00 | 66 | 1024.0 |
| 20260905145601 | 66 | 304 | 8.0 | 14.0 | 0.00 | 0.00 | 0.00 | 67 | 1024.0 |
| 20260905145103 | 66 | 303 | 9.0 | 18.0 | 0.00 | 0.00 | 0.00 | 67 | 1023.9 |
| 20260905144601 | 66 | 310 | 7.0 | 12.0 | 0.00 | 0.00 | 0.00 | 67 | 1023.9 |
| 20260905144102 | 66 | 299 | 9.0 | 13.0 | 0.00 | 0.00 | 0.00 | 67 | 1023.9 |
| 20260905143602 | 66 | 302 | 7.0 | 16.0 | 0.00 | 0.00 | 0.00 | 66 | 1023.8 |
| 20260905143102 | 66 | 318 | 9.0 | 15.0 | 0.00 | 0.00 | 0.00 | 67 | 1023.6 |
| 20260905142602 | 66 | 299 | 6.0 | 14.0 | 0.00 | 0.00 | 0.00 | 68 | 1023.6 |
| 20260905142102 | 66 | 322 | 7.0 | 18.0 | 0.00 | 0.00 | 0.00 | 67 | 1023.6 |
| 20260905141601 | 66 | 295 | 6.0 | 13.0 | 0.00 | 0.00 | 0.00 | 67 | 1023.6 |
| 20260905141103 | 66 | 305 | 7.0 | 14.0 | 0.00 | 0.00 | 0.00 | 66 | 1023.5 |
| 20260905135601 | 66 | 297 | 8.0 | 13.0 | 0.00 | 0.00 | 0.00 | 68 | 1023.5 |
| 20260905134103 | 67 | 290 | 7.0 | 15.0 | 0.00 | 0.00 | 0.00 | 67 | 1023.4 |
| 20260905132602 | 67 | 280 | 7.0 | 16.0 | 0.00 | 0.00 | 0.00 | 67 | 1023.1 |
| 20260905132102 | 67 | 298 | 7.0 | 20.0 | 0.00 | 0.00 | 0.00 | 65 | 1023.1 |
| 20260905131602 | 66 | 278 | 6.0 | 13.0 | 0.00 | 0.00 | 0.00 | 68 | 1023.1 |
| 20260905131102 | 66 | 276 | 9.0 | 18.0 | 0.00 | 0.00 | 0.00 | 69 | 1023.0 |
| 20260905123602 | 66 | 303 | 11.0 | 18.0 | 0.00 | 0.00 | 0.00 | 69 | 1022.7 |
| 20260905123103 | 65 | 289 | 7.0 | 14.0 | 0.00 | 0.00 | 0.00 | 70 | 1022.6 |
| 20260905122601 | 65 | 305 | 9.0 | 15.0 | 0.00 | 0.00 | 0.00 | 70 | 1022.7 |
| 20260905122102 | 66 | 299 | 10.0 | 16.0 | 0.00 | 0.00 | 0.00 | 69 | 1022.6 |
| 20260905121602 | 66 | 334 | 7.0 | 15.0 | 0.00 | 0.00 | 0.00 | 69 | 1022.5 |
| 20260905121103 | 66 | 304 | 10.0 | 16.0 | 0.00 | 0.00 | 0.00 | 69 | 1022.5 |
| 20260905115601 | 66 | 291 | 9.0 | 18.0 | 0.00 | 0.00 | 0.00 | 67 | 1022.5 |
| 20260905115102 | 66 | 302 | 9.0 | 17.0 | 0.00 | 0.00 | 0.00 | 67 | 1022.5 |
| 20260905114102 | 66 | 297 | 9.0 | 20.0 | 0.00 | 0.00 | 0.00 | 68 | 1022.5 |
| 20260905113601 | 66 | 283 | 9.0 | 22.0 | 0.00 | 0.01 | 0.00 | 68 | 1022.5 |
| 20260905112103 | 66 | 287 | 8.0 | 17.0 | 0.00 | 0.02 | 0.00 | 65 | 1022.1 |
| 20260905105102 | 66 | 304 | 9.0 | 16.0 | 0.00 | 0.05 | 0.00 | 68 | 1021.9 |
| 20260905104602 | 66 | 286 | 9.0 | 20.0 | 0.00 | 0.05 | 0.00 | 68 | 1021.9 |
| 20260905102102 | 67 | 288 | 9.0 | 18.0 | 0.00 | 0.11 | 0.00 | 67 | 1021.5 |
| 20260905101602 | 67 | 274 | 6.0 | 13.0 | 0.00 | 0.11 | 0.00 | 69 | 1021.4 |
| 20260905101103 | 66 | 299 | 9.0 | 20.0 | 0.00 | 0.11 | 0.00 | 70 | 1021.4 |
| 20260905092601 | 66 | 302 | 8.0 | 20.0 | 0.00 | 0.11 | 0.00 | 71 | 1020.8 |
| 20260905092102 | 66 | 289 | 7.0 | 15.0 | 0.00 | 0.11 | 0.00 | 71 | 1020.7 |
| 20260905090101 | 66 | 281 | 5.0 | 17.0 | 0.00 | 0.11 | 0.00 | 71 | 1020.5 |
| 20260905085601 | 66 | 296 | 9.0 | 16.0 | 0.00 | 0.11 | 0.00 | 71 | 1020.5 |
| 20260905085102 | 66 | 288 | 9.0 | 13.0 | 0.00 | 0.11 | 0.00 | 71 | 1020.5 |
| 20260905084601 | 65 | 287 | 9.0 | 17.0 | 0.00 | 0.11 | 0.00 | 70 | 1020.4 |
| 20260905084102 | 66 | 283 | 9.0 | 21.0 | 0.00 | 0.11 | 0.00 | 71 | 1020.4 |
| 20260905083601 | 65 | 272 | 10.0 | 16.0 | 0.00 | 0.11 | 0.00 | 73 | 1020.2 |
| 20260905083102 | 65 | 294 | 7.0 | 23.0 | 0.00 | 0.11 | 0.00 | 73 | 1020.0 |
| 20260905082603 | 65 | 278 | 9.0 | 15.0 | 0.00 | 0.11 | 0.00 | 73 | 1019.9 |
| 20260905082102 | 65 | 293 | 7.0 | 17.0 | 0.00 | 0.11 | 0.00 | 73 | 1019.9 |
| 20260905081601 | 65 | 302 | 8.0 | 15.0 | 0.00 | 0.11 | 0.00 | 74 | 1019.8 |
| 20260905081102 | 65 | 289 | 7.0 | 16.0 | 0.00 | 0.11 | 0.00 | 74 | 1019.6 |
| 20260905080101 | 65 | 295 | 9.0 | 18.0 | 0.00 | 0.11 | 0.00 | 75 | 1019.5 |
| 20260905075601 | 65 | 272 | 7.0 | 16.0 | 0.00 | 0.11 | 0.00 | 75 | 1019.4 |
| 20260905075102 | 65 | 275 | 5.0 | 16.0 | 0.00 | 0.11 | 0.00 | 75 | 1019.4 |
| 20260905074601 | 65 | 290 | 5.0 | 15.0 | 0.00 | 0.11 | 0.00 | 75 | 1019.4 |
| 20260905074102 | 65 | 283 | 9.0 | 17.0 | 0.00 | 0.11 | 0.00 | 74 | 1019.3 |
| 20260905073601 | 65 | 284 | 9.0 | 16.0 | 0.00 | 0.11 | 0.00 | 75 | 1019.2 |